Regional Weather Roundup
Issued by NWS Charleston, WV

Home | Current Version | Previous Version | Text Only | Print | Product List | Glossary On
Versions: 1 2 3 4 5 6 7 8 9 10 11 12 13 14 15 16 17 18 19 20 21 22 23 24 25 26 27 28 29 30 31 32 33 34 35 36 37 38 39 40 41 42 43 44 45 46 47 48 49 50
000
ASUS41 KRLX 031810
RWRRLX
West Virginia Regional Weather Roundup
National Weather Service Charleston WV
200 PM EDT FRI JUL 03 2015

Note: "fair" indicates few or no clouds below 12,000 feet with no
significant weather and/or obstructions to visibility.

WVZ003-031900-
Northern Panhandle of West Virginia

CITY           SKY/WX    TMP DP  RH WIND       PRES   REMARKS
WHEELING       CLOUDY    77  58  51 E7        29.94F
$$

WVZ009-031900-
Northwest West Virginia

CITY           SKY/WX    TMP DP  RH WIND       PRES   REMARKS
PARKERSBURG    CLOUDY    77  63  61 E6        29.93F
$$

WVZ006-031900-
Western West Virginia

CITY           SKY/WX    TMP DP  RH WIND       PRES   REMARKS
HUNTINGTON       N/A     73  69  87 MISG      29.87F
$$

WVZ015-031900-
West Central West Virginia

CITY           SKY/WX    TMP DP  RH WIND       PRES   REMARKS
CHARLESTON     CLOUDY    76  68  76 S5        29.89F
$$

WVZ022-031-031900-
North Central West Virginia

CITY           SKY/WX    TMP DP  RH WIND       PRES   REMARKS
CLARKSBURG     CLOUDY    75  65  70 NE5       29.92F
MORGANTOWN     CLOUDY    80  58  46 VRB3      29.94F
$$

WVZ025-035-042-045-031900-
Southern West Virginia

CITY           SKY/WX    TMP DP  RH WIND       PRES   REMARKS
BECKLEY        LGT RAIN  68  64  87 S9        29.99S
LOGAN          PTSUNNY   70  68  94 S7        29.88F FOG
BLUEFIELD      CLOUDY    72  63  73 S8        30.01F
LEWISBURG      CLOUDY    67  62  84 S5        30.01F
$$

WVZ047-031900-
Northern Mountains of West Virginia

CITY           SKY/WX    TMP DP  RH WIND       PRES   REMARKS
ELKINS         CLOUDY    69  60  73 SE6       29.98F
$$

WVZ052-031900-
Eastern Panhandle of West Virginia

CITY           SKY/WX    TMP DP  RH WIND       PRES   REMARKS
MARTINSBURG    CLOUDY    75  64  68 S5        29.98F
PETERSBURG     CLOUDY    75  60  58 SE6       29.98
$$


USA.gov is the U.S. government's official web portal to all federal, state and local government web resources and services.